Kazan, Russia

9:04 AM MSK on December 10, 2019 (GMT +0300)
Kazan

Weather History for UWKD - October, 2019

Change the Weather History Date:

Thursday, October 31, 2019

  Actual Average (WUND) Record (WUND)
Temperature  
Mean Temperature 28 °F -  
Max Temperature 33 °F - - (-1)
Min Temperature 24 °F - - (-1)
Degree Days  
Heating Degree Days 36    
Moisture  
Dew Point 22 °F    
Average Humidity 72    
Maximum Humidity 93    
Minimum Humidity 50    
Precipitation  
Precipitation 0.00 in - - ()
Sea Level Pressure  
Sea Level Pressure 29.73 in    
Wind  
Wind Speed 8 mph ()    
Max Wind Speed 16 mph    
Max Gust Speed 27 mph    
Visibility 6.1 miles    
Events Rain , Snow    
Averages and records for this station are not official NWS values.
T = Trace of Precipitation, MM = Missing Value Source: Averaged Metar Reports

Daily Weather History Graph

Daily Weather History Graph

Search for Another Location

Airport or City:

Astronomy

Oct. 31, 2019 Rise Set
Actual Time 6:45 AM MSK 4:06 PM MSK
Civil Twilight 6:06 AM MSK 4:45 PM MSK
Nautical Twilight 5:22 AM MSK 5:29 PM MSK
Astronomical Twilight 4:40 AM MSK 6:11 PM MSK
Moon 10:39 AM MSK (10/31) 6:11 PM MSK (10/31)
Length of Visible Light 10h 39m
Length of Day
9h 21m
Waxing Crescent, 13% of the Moon is Illuminated
Oct 31
Waxing Crescent
Nov 4
First Quarter
Nov 12
Full
Nov 20
Last Quarter
Nov 26
New

Hourly Weather History & Observations

Time (MSK) Temp. Windchill Dew Point Humidity Pressure Visibility Wind Dir Wind Speed Gust Speed Precip Events Conditions
12:00 AM 32 °F - 31 °F 92% 29.69 in 6 mi East 4.5 mph - - Snow Light Snow
12:30 AM 32.0 °F 24.3 °F 30.2 °F 93% 29.65 in 5.0 mi East 8.9 mph - N/A Rain , Snow Light Snow
1:00 AM 32.0 °F 24.3 °F 28.4 °F 87% 29.65 in 6.2 mi ESE 8.9 mph - N/A Rain , Snow Light Snow
1:30 AM 32.0 °F 24.3 °F 28.4 °F 87% 29.62 in - East 8.9 mph - N/A   Clear
2:00 AM 32.0 °F 24.3 °F 28.4 °F 87% 29.62 in - East 8.9 mph - N/A   Clear
2:30 AM 32.0 °F 24.3 °F 26.6 °F 80% 29.62 in 6.2 mi East 8.9 mph - N/A Rain , Snow Light Snow
3:00 AM 31 °F - 28 °F 83% 29.67 in 6 mi East 4.5 mph - - Snow Light Snow
3:00 AM 32.0 °F 25.7 °F 26.6 °F 80% 29.62 in 6.2 mi East 6.7 mph - N/A   Mostly Cloudy
3:30 AM 32.0 °F 25.7 °F 26.6 °F 80% 29.62 in 6.2 mi East 6.7 mph - N/A   Mostly Cloudy
4:00 AM 30.2 °F 22.1 °F 26.6 °F 86% 29.62 in 6.2 mi East 8.9 mph - N/A   Mostly Cloudy
4:30 AM 30.2 °F 23.5 °F 24.8 °F 80% 29.62 in 6.2 mi East 6.7 mph - N/A   Mostly Cloudy
5:00 AM 30.2 °F 25.5 °F 24.8 °F 80% 29.62 in 6.2 mi ENE 4.5 mph - N/A   Mostly Cloudy
5:30 AM 30.2 °F 25.5 °F 23.0 °F 75% 29.62 in 6.2 mi ENE 4.5 mph - N/A   Mostly Cloudy
6:00 AM 29 °F - 24 °F 75% 29.68 in 6 mi East 2.2 mph - -   Partly Cloudy
6:30 AM 28.4 °F 21.4 °F 24.8 °F 86% 29.65 in 6.2 mi ENE 6.7 mph - N/A   Overcast
7:00 AM 28.4 °F 19.9 °F 23.0 °F 80% 29.65 in 6.2 mi ENE 8.9 mph - N/A   Overcast
8:00 AM 30.2 °F 25.5 °F 23.0 °F 75% 29.65 in 6.2 mi NE 4.5 mph - N/A   Mostly Cloudy
8:30 AM 30.2 °F 23.5 °F 21.2 °F 69% 29.65 in 6.2 mi NE 6.7 mph - N/A   Mostly Cloudy
9:00 AM 30 °F - 21 °F 57% 29.71 in 6 mi North 2.2 mph - -   Overcast
9:00 AM 30.2 °F 25.5 °F 21.2 °F 69% 29.68 in 6.2 mi North 4.5 mph - N/A   Mostly Cloudy
9:30 AM 30.2 °F 23.5 °F 21.2 °F 69% 29.68 in 6.2 mi North 6.7 mph - N/A   Mostly Cloudy
10:30 AM 32.0 °F 24.3 °F 21.2 °F 64% 29.68 in 6.2 mi North 8.9 mph - N/A   Mostly Cloudy
11:30 AM 33.8 °F 25.4 °F 21.2 °F 60% 29.68 in 6.2 mi NNW 11.2 mph - N/A   Mostly Cloudy
12:00 PM 33 °F - 21 °F 50% 29.73 in 6 mi NW 4.5 mph - -   Mostly Cloudy
12:00 PM 33.8 °F 25.4 °F 21.2 °F 60% 29.68 in 6.2 mi NNW 11.2 mph - N/A   Mostly Cloudy
12:30 PM 33.8 °F 24.5 °F 21.2 °F 60% 29.68 in 6.2 mi NNW 13.4 mph - N/A   Partly Cloudy
1:00 PM 33.8 °F 25.4 °F 19.4 °F 56% 29.68 in 6.2 mi North 11.2 mph - N/A   Partly Cloudy
1:30 PM 33.8 °F 25.4 °F 21.2 °F 60% 29.71 in 6.2 mi North 11.2 mph - N/A   Partly Cloudy
2:00 PM 33.8 °F 24.5 °F 21.2 °F 60% 29.71 in 6.2 mi NNW 13.4 mph - N/A   Scattered Clouds
2:30 PM 33.8 °F 24.5 °F 21.2 °F 60% 29.71 in 6.2 mi North 13.4 mph - N/A   Scattered Clouds
3:00 PM 31 °F - 20 °F 53% 29.78 in 6 mi North 4.5 mph - -   Overcast
3:00 PM 30.2 °F 22.1 °F 21.2 °F 69% 29.74 in 6.2 mi North 8.9 mph 20.1 mph N/A   Scattered Clouds
3:30 PM 30.2 °F 22.1 °F 21.2 °F 69% 29.74 in 6.2 mi North 8.9 mph 20.1 mph N/A   Scattered Clouds
4:30 PM 28.4 °F 18.7 °F 19.4 °F 69% 29.77 in 6.2 mi North 11.2 mph 22.4 mph N/A   Overcast
5:30 PM 26.6 °F 14.4 °F 19.4 °F 74% 29.80 in 6.2 mi North 15.7 mph 26.8 mph N/A   Overcast
6:00 PM 27 °F - 19 °F 62% 29.87 in 6 mi North 4.5 mph - -   Overcast
6:00 PM 26.6 °F 16.4 °F 19.4 °F 74% 29.83 in 6.2 mi North 11.2 mph 22.4 mph N/A   Overcast
6:30 PM 26.6 °F 15.3 °F 19.4 °F 74% 29.83 in 6.2 mi North 13.4 mph 24.6 mph N/A   Overcast
7:00 PM 26.6 °F 16.4 °F 19.4 °F 74% 29.83 in 6.2 mi NNW 11.2 mph 22.4 mph N/A   Overcast
7:30 PM 26.6 °F 17.7 °F 19.4 °F 74% 29.83 in 6.2 mi NNW 8.9 mph 20.1 mph N/A   Overcast
8:00 PM 26.6 °F 15.3 °F 19.4 °F 74% 29.86 in 6.2 mi North 13.4 mph 24.6 mph N/A   Overcast
8:30 PM 26.6 °F 15.3 °F 17.6 °F 69% 29.86 in 6.2 mi North 13.4 mph - N/A   Overcast
9:00 PM 26 °F - 17 °F 58% 29.92 in 6 mi NW 4.5 mph - -   Overcast
9:30 PM 26.6 °F 14.4 °F 17.6 °F 69% 29.89 in 6.2 mi North 15.7 mph - N/A   Overcast
10:00 PM 24.8 °F 13.1 °F 17.6 °F 74% 29.89 in 6.2 mi NNW 13.4 mph - N/A   Overcast
10:30 PM 24.8 °F 14.2 °F 17.6 °F 74% 29.89 in 6.2 mi North 11.2 mph - N/A   Overcast
11:00 PM 24.8 °F 13.1 °F 17.6 °F 74% 29.89 in 6.2 mi North 13.4 mph - N/A   Overcast
11:30 PM 24.8 °F 13.1 °F 15.8 °F 69% 29.92 in 6.2 mi NNW 13.4 mph - N/A   Overcast